Queen Sapphire — 9V7564 — position and weather

sailwx.info

Track history (hours):
 
Tides and Currents Weather Stations Pressure Air Temp Water Temp Dewpoint Dewpoint Depression Visibility Wind Speed Wind Dir Waves Ship Positions

Queen Sapphire

Last reported at 2014-Jul-26 03:29 UTC. Time now 2014-Jul-30 19:12 UTC.
Position N 48°31' W 126°47'.

Length 200 m; draft 8.1 m.

Type: Cargo ship. MMSI: 564254000.

Date/timePositionNaut miles runAvg speedWind from/ knotsBaromVisibWave heightAir tempDewpointWater temp
2014-Jul-26 03:29N 48°31' W 126°47'1617.5
2014-Jul-26 02:33N 48°31' W 126°22'1717.2
2014-Jul-26 01:33N 48°31' W 125°56'1717.2
2014-Jul-26 00:33N 48°31' W 125°30'1716.7
2014-Jul-25 23:33N 48°31' W 125°05'1716.7
2014-Jul-25 22:33N 48°29' W 124°40'1616.4
2014-Jul-25 21:33N 48°23' W 124°17'1616.2
2014-Jul-25 20:33N 48°17' W 123°54'1616.7
2014-Jul-25 19:33N 48°14' W 123°30'1212.5
2014-Jul-25 18:33N 48°11' W 123°12'1918.6
2014-Jul-25 17:33N 48°09' W 122°44'1919.4
2014-Jul-25 16:33N 47°53' W 122°28'1919.0
2014-Jul-25 15:33N 47°34' W 122°26'1615.7
2014-Jul-25 14:33N 47°18' W 122°27'4 1.0
2014-Jul-25 10:26N 47°15' W 122°23'0 0.0
2014-Jul-25 09:26N 47°15' W 122°23'0 0.0
2014-Jul-25 08:26N 47°15' W 122°23'0 0.0
2014-Jul-25 07:32N 47°15' W 122°23'0 0.0
2014-Jul-25 06:32N 47°15' W 122°23'0 0.0
2014-Jul-25 04:26N 47°15' W 122°23'0 0.0
2014-Jul-25 03:26N 47°15' W 122°23'0 0.0
2014-Jul-25 01:14N 47°15' W 122°23'0 0.0
2014-Jul-24 08:11N 47°15' W 122°23'0 0.0
2014-Jul-24 07:23N 47°15' W 122°23'0 0.0
2014-Jul-24 02:33N 47°16' W 122°23'2 2.2
2014-Jul-24 01:33N 47°17' W 122°26'0 0.0
2014-Jul-24 00:31N 47°17' W 122°26'0 0.0
2014-Jul-23 23:31N 47°17' W 122°26'0 0.0
2014-Jul-23 22:28N 47°17' W 122°26'0 0.0
2014-Jul-23 21:31N 47°17' W 122°26'0 0.0
2014-Jul-23 20:31N 47°17' W 122°26'0 0.0
2014-Jul-23 19:31N 47°17' W 122°26'0 0.0
2014-Jul-23 18:28N 47°17' W 122°26'0 0.1
2014-Jul-23 17:28N 47°17' W 122°26'0 0.0
2014-Jul-23 16:31N 47°17' W 122°26'0 0.0
2014-Jul-23 15:31N 47°17' W 122°26'0 0.0
2014-Jul-23 14:31N 47°17' W 122°26'0 0.0
2014-Jul-23 13:31N 47°17' W 122°26'0 0.0
2014-Jul-23 12:28N 47°17' W 122°26'0 0.0
2014-Jul-23 11:31N 47°17' W 122°26'0 0.0
2014-Jul-23 10:31N 47°17' W 122°26'6 5.9
2014-Jul-23 09:33N 47°22' W 122°23'1717.1
2014-Jul-23 08:34N 47°39' W 122°28'1717.5
2014-Jul-23 07:34N 47°56' W 122°32'1817.9
2014-Jul-23 06:33N 48°11' W 122°48'1817.9
2014-Jul-23 05:33N 48°12' W 123°15'1010.3
2014-Jul-23 04:32N 48°13' W 123°31'1111.6
2014-Jul-23 03:33N 48°23' W 123°22'1212.2
2014-Jul-23 02:33N 48°34' W 123°13'1515.2
2014-Jul-23 01:34N 48°47' W 123°02'1717.0
2014-Jul-23 00:34N 49°00' W 123°18'8 8.1
2014-Jul-22 23:33N 49°07' W 123°11'1010.0
2014-Jul-22 22:33N 49°10' W 122°57'2 1.7
2014-Jul-22 21:32N 49°11' W 122°55'0 0.0
2014-Jul-22 20:32N 49°11' W 122°55'0 0.0
2014-Jul-22 19:32N 49°11' W 122°55'0 0.0
2014-Jul-22 18:29N 49°11' W 122°55'0 0.0
2014-Jul-22 17:32N 49°11' W 122°55'0 0.0
2014-Jul-22 16:32N 49°11' W 122°55'0 0.0
2014-Jul-22 15:32N 49°11' W 122°55'0 0.0
2014-Jul-22 14:32N 49°11' W 122°55'0 0.0
2014-Jul-22 13:32N 49°11' W 122°55'0 0.0
2014-Jul-22 12:32N 49°11' W 122°55'0 0.0
2014-Jul-22 11:32N 49°11' W 122°55'0 0.0
2014-Jul-22 10:32N 49°11' W 122°55'0 0.0
2014-Jul-22 09:29N 49°11' W 122°55'0 0.0
2014-Jul-22 08:32N 49°11' W 122°55'0 0.0
2014-Jul-22 07:32N 49°11' W 122°55'0 0.0
2014-Jul-22 06:32N 49°11' W 122°55'0 0.0
2014-Jul-22 05:32N 49°11' W 122°55'0 0.4
2014-Jul-22 04:33N 49°11' W 122°55'9 9.2
2014-Jul-22 03:33N 49°06' W 123°08'9 8.9
2014-Jul-22 02:33N 49°05' W 123°21'1515.1
2014-Jul-22 01:33N 48°54' W 123°05'1312.5
2014-Jul-22 00:33N 48°43' W 123°12'1716.6
2014-Jul-21 23:33N 48°26' W 123°10'1211.9
2014-Jul-21 22:33N 48°19' W 123°25'8 7.8
2014-Jul-21 21:33N 48°13' W 123°33'1413.5
2014-Jul-21 20:32N 48°13' W 123°53'416.7
2014-Jul-21 20:18N 48°15' W 123°59'1317.2
2014-Jul-21 19:33N 48°20' W 124°16'1717.1
2014-Jul-21 18:33N 48°27' W 124°40'1717.0
2014-Jul-21 17:33N 48°29' W 125°05'1716.6
2014-Jul-21 16:33N 48°29' W 125°30'1918.6
2014-Jul-21 15:33N 48°29' W 125°58'1313.3
2014-Jul-21 14:33N 48°29' W 126°18'  
Track history (hours):
 
Tides and Currents Weather Stations Pressure Air Temp Water Temp Dewpoint Dewpoint Depression Visibility Wind Speed Wind Dir Waves Ship Positions

Queen Sapphire

Last reported at 2014-Jul-26 03:29 UTC. Time now 2014-Jul-30 19:12 UTC.
Position N 48°31' W 126°47'.

Length 200 m; draft 8.1 m.

Type: Cargo ship. MMSI: 564254000.

Date/timePositionNaut miles runAvg speedWind from/ knotsBaromVisibWave heightAir tempDewpointWater temp
2014-Jul-26 03:29N 48°31' W 126°47'1617.5
2014-Jul-26 02:33N 48°31' W 126°22'1717.2
2014-Jul-26 01:33N 48°31' W 125°56'1717.2
2014-Jul-26 00:33N 48°31' W 125°30'1716.7
2014-Jul-25 23:33N 48°31' W 125°05'1716.7
2014-Jul-25 22:33N 48°29' W 124°40'1616.4
2014-Jul-25 21:33N 48°23' W 124°17'1616.2
2014-Jul-25 20:33N 48°17' W 123°54'1616.7
2014-Jul-25 19:33N 48°14' W 123°30'1212.5
2014-Jul-25 18:33N 48°11' W 123°12'1918.6
2014-Jul-25 17:33N 48°09' W 122°44'1919.4
2014-Jul-25 16:33N 47°53' W 122°28'1919.0
2014-Jul-25 15:33N 47°34' W 122°26'1615.7
2014-Jul-25 14:33N 47°18' W 122°27'4 1.0
2014-Jul-25 10:26N 47°15' W 122°23'0 0.0
2014-Jul-25 09:26N 47°15' W 122°23'0 0.0
2014-Jul-25 08:26N 47°15' W 122°23'0 0.0
2014-Jul-25 07:32N 47°15' W 122°23'0 0.0
2014-Jul-25 06:32N 47°15' W 122°23'0 0.0
2014-Jul-25 04:26N 47°15' W 122°23'0 0.0
2014-Jul-25 03:26N 47°15' W 122°23'0 0.0
2014-Jul-25 01:14N 47°15' W 122°23'0 0.0
2014-Jul-24 08:11N 47°15' W 122°23'0 0.0
2014-Jul-24 07:23N 47°15' W 122°23'0 0.0
2014-Jul-24 02:33N 47°16' W 122°23'2 2.2
2014-Jul-24 01:33N 47°17' W 122°26'0 0.0
2014-Jul-24 00:31N 47°17' W 122°26'0 0.0
2014-Jul-23 23:31N 47°17' W 122°26'0 0.0
2014-Jul-23 22:28N 47°17' W 122°26'0 0.0
2014-Jul-23 21:31N 47°17' W 122°26'0 0.0
2014-Jul-23 20:31N 47°17' W 122°26'0 0.0
2014-Jul-23 19:31N 47°17' W 122°26'0 0.0
2014-Jul-23 18:28N 47°17' W 122°26'0 0.1
2014-Jul-23 17:28N 47°17' W 122°26'0 0.0
2014-Jul-23 16:31N 47°17' W 122°26'0 0.0
2014-Jul-23 15:31N 47°17' W 122°26'0 0.0
2014-Jul-23 14:31N 47°17' W 122°26'0 0.0
2014-Jul-23 13:31N 47°17' W 122°26'0 0.0
2014-Jul-23 12:28N 47°17' W 122°26'0 0.0
2014-Jul-23 11:31N 47°17' W 122°26'0 0.0
2014-Jul-23 10:31N 47°17' W 122°26'6 5.9
2014-Jul-23 09:33N 47°22' W 122°23'1717.1
2014-Jul-23 08:34N 47°39' W 122°28'1717.5
2014-Jul-23 07:34N 47°56' W 122°32'1817.9
2014-Jul-23 06:33N 48°11' W 122°48'1817.9
2014-Jul-23 05:33N 48°12' W 123°15'1010.3
2014-Jul-23 04:32N 48°13' W 123°31'1111.6
2014-Jul-23 03:33N 48°23' W 123°22'1212.2
2014-Jul-23 02:33N 48°34' W 123°13'1515.2
2014-Jul-23 01:34N 48°47' W 123°02'1717.0
2014-Jul-23 00:34N 49°00' W 123°18'8 8.1
2014-Jul-22 23:33N 49°07' W 123°11'1010.0
2014-Jul-22 22:33N 49°10' W 122°57'2 1.7
2014-Jul-22 21:32N 49°11' W 122°55'0 0.0
2014-Jul-22 20:32N 49°11' W 122°55'0 0.0
2014-Jul-22 19:32N 49°11' W 122°55'0 0.0
2014-Jul-22 18:29N 49°11' W 122°55'0 0.0
2014-Jul-22 17:32N 49°11' W 122°55'0 0.0
2014-Jul-22 16:32N 49°11' W 122°55'0 0.0
2014-Jul-22 15:32N 49°11' W 122°55'0 0.0
2014-Jul-22 14:32N 49°11' W 122°55'0 0.0
2014-Jul-22 13:32N 49°11' W 122°55'0 0.0
2014-Jul-22 12:32N 49°11' W 122°55'0 0.0
2014-Jul-22 11:32N 49°11' W 122°55'0 0.0
2014-Jul-22 10:32N 49°11' W 122°55'0 0.0
2014-Jul-22 09:29N 49°11' W 122°55'0 0.0
2014-Jul-22 08:32N 49°11' W 122°55'0 0.0
2014-Jul-22 07:32N 49°11' W 122°55'0 0.0
2014-Jul-22 06:32N 49°11' W 122°55'0 0.0
2014-Jul-22 05:32N 49°11' W 122°55'0 0.4
2014-Jul-22 04:33N 49°11' W 122°55'9 9.2
2014-Jul-22 03:33N 49°06' W 123°08'9 8.9
2014-Jul-22 02:33N 49°05' W 123°21'1515.1
2014-Jul-22 01:33N 48°54' W 123°05'1312.5
2014-Jul-22 00:33N 48°43' W 123°12'1716.6
2014-Jul-21 23:33N 48°26' W 123°10'1211.9
2014-Jul-21 22:33N 48°19' W 123°25'8 7.8
2014-Jul-21 21:33N 48°13' W 123°33'1413.5
2014-Jul-21 20:32N 48°13' W 123°53'416.7
2014-Jul-21 20:18N 48°15' W 123°59'1317.2
2014-Jul-21 19:33N 48°20' W 124°16'1717.1
2014-Jul-21 18:33N 48°27' W 124°40'1717.0
2014-Jul-21 17:33N 48°29' W 125°05'1716.6
2014-Jul-21 16:33N 48°29' W 125°30'1918.6
2014-Jul-21 15:33N 48°29' W 125°58'1313.3
2014-Jul-21 14:33N 48°29' W 126°18'  

Dump ship's entire track history